Simultaneous Nadir Overpasses (SNOs) Predictions

Prediction of SNOs between AQUA and GOES-15 Satellite Orbit:

Table of predicted SNOs for the next 14.0 days since TLE Epoch: 12/14/2012
Index Date Time (AQUA) AQUA Lat,Lon GOES-15 Lat,Lon Distance(km) Time Diff (sec)
1 12/15/2012 22:23:01 0.79,-132.05 0.07,-135.44 386.26 80
2 12/16/2012 10:44:17 0.32,-137.20 -0.08,-135.46 199.31 80
3 12/18/2012 10:32:09 -0.32,-134.26 -0.08,-135.47 137.20 80
4 12/18/2012 22:53:35 -0.73,-139.47 0.10,-135.46 455.01 80
5 12/20/2012 10:20:01 -0.94,-131.32 -0.08,-135.48 473.28 80
6 12/20/2012 22:41:27 -0.11,-136.52 0.09,-135.47 118.91 80
7 12/22/2012 22:29:19 0.49,-133.57 0.09,-135.48 216.55 80
8 12/23/2012 10:50:35 0.58,-138.74 -0.10,-135.50 368.51 80
9 12/25/2012 10:38:27 0.00,-135.79 -0.09,-135.49 34.20 80
10 12/27/2012 10:26:21 -0.62,-132.85 -0.08,-135.49 299.62 80
11 12/27/2012 22:47:46 -0.45,-138.05 0.09,-135.46 294.03 80




NCC Satellite Simultaneous Nadir Overpasses (SNOs) Prediction Service
